DW5595 Weather Reports


time (UTC)temp
C
wind
direction
speed
KPH
gust
KPH
rain 1hr
cm
rain 24hr
cm
rain mn
cm
humidity
%
barometer
mb
20260903030017 23 313 0.0 0.0 0.00 0.00 0.00 93 1018.9
20260903024539 23 313 0.0 0.0 0.00 0.00 0.00 92 1019.1
20260903021536 24 313 0.0 0.0 0.00 0.00 0.00 91 1019.1
20260903020028 24 313 0.0 0.0 0.00 0.00 0.00 91 1018.9
20260903014542 24 313 0.0 0.0 0.00 0.00 0.00 91 1018.7
20260903013023 25 313 0.0 0.0 0.00 0.00 0.00 90 1018.5
20260903011534 25 313 0.0 0.0 0.00 0.00 0.00 88 1018.3
20260903010037 25 313 0.0 0.0 0.00 0.00 0.00 88 1018.2
20260903004537 26 313 0.0 0.0 0.00 0.00 0.00 86 1018.0
20260903001533 27 313 0.0 0.0 0.00 0.00 0.00 82 1017.9
20260903000033 28 313 0.0 0.0 0.00 0.00 0.00 81 1017.6
20260902234527 28 313 0.0 0.0 0.00 0.00 0.00 76 1017.5
20260902233020 30 313 0.0 0.0 0.00 0.00 0.00 75 1017.6
20260902231538 30 313 0.0 0.0 0.00 0.00 0.00 70 1017.7
20260902230032 30 313 0.0 0.0 0.00 0.00 0.00 66 1017.6
20260902224534 31 313 0.0 0.0 0.00 0.00 0.00 63 1017.6
20260902223005 31 313 0.0 0.0 0.00 0.00 0.00 61 1017.6
20260902221505 32 313 0.0 3.2 0.00 0.00 0.00 61 1017.6
20260902220005 32 313 0.0 1.6 0.00 0.00 0.00 58 1017.8
20260902214504 33 11 0.0 1.6 0.00 0.00 0.00 58 1017.8
20260902213007 33 325 0.0 3.2 0.00 0.00 0.00 52 1017.8
20260902211504 33 5 1.6 6.4 0.00 0.00 0.00 53 1017.9
20260902210005 33 34 1.6 4.8 0.00 0.00 0.00 55 1018.1
20260902204507 33 346 4.8 8.0 0.00 0.00 0.00 52 1018.1
20260902203007 33 137 4.8 6.4 0.00 0.00 0.00 53 1018.0
20260902201504 33 194 0.0 3.2 0.00 0.00 0.00 51 1018.0
20260902200013 33 261 1.6 8.0 0.00 0.00 0.00 51 1018.3
20260902194508 33 312 1.6 11.3 0.00 0.00 0.00 53 1018.4
20260902193008 33 268 0.0 12.9 0.00 0.00 0.00 52 1018.5
20260902191510 33 152 0.0 4.8 0.00 0.00 0.00 49 1018.7
20260902190009 33 311 3.2 8.0 0.00 0.00 0.00 50 1018.8
20260902184518 33 276 1.6 3.2 0.00 0.00 0.00 55 1018.9
20260902183010 33 272 0.0 9.7 0.00 0.00 0.00 54 1019.1
20260902181508 33 5 0.0 9.7 0.00 0.00 0.00 54 1019.3
20260902180008 33 317 3.2 8.0 0.00 0.00 0.00 55 1019.3
20260902174513 33 228 0.0 4.8 0.00 0.00 0.00 55 1019.4
20260902173009 33 169 0.0 8.0 0.00 0.00 0.00 56 1019.6
20260902171509 32 309 1.6 9.7 0.00 0.00 0.00 56 1019.8
20260902170010 32 312 1.6 9.7 0.00 0.00 0.00 56 1020.0
20260902164516 32 329 3.2 8.0 0.00 0.00 0.00 56 1020.1
20260902163012 32 344 0.0 3.2 0.00 0.00 0.00 59 1020.2
20260902161518 32 352 0.0 3.2 0.00 0.00 0.00 59 1020.3
20260902160010 32 36 0.0 4.8 0.00 0.00 0.00 60 1020.4
20260902154514 32 163 0.0 0.0 0.00 0.00 0.00 61 1020.4
20260902153009 31 199 0.0 3.2 0.00 0.00 0.00 63 1020.6
20260902151514 30 32 3.2 4.8 0.00 0.00 0.00 67 1020.5
20260902150012 30 5 1.6 4.8 0.00 0.00 0.00 68 1020.5
20260902144525 29 30 0.0 6.4 0.00 0.00 0.00 69 1020.6
20260902143011 28 340 3.2 8.0 0.00 0.00 0.00 74 1020.5
20260902141518 28 317 3.2 6.4 0.00 0.00 0.00 75 1020.5
20260902140018 27 10 0.0 3.2 0.00 0.00 0.00 78 1020.4
20260902134514 27 352 3.2 6.4 0.00 0.00 0.00 79 1020.4
20260902133017 26 316 0.0 3.2 0.00 0.00 0.00 82 1020.3
20260902131538 25 141 0.0 0.0 0.00 0.00 0.00 88 1020.3
20260902130019 23 338 0.0 3.2 0.00 0.00 0.00 93 1020.2
20260902124519 22 149 0.0 0.0 0.00 0.00 0.00 96 1020.4
20260902123037 21 149 0.0 0.0 0.00 0.00 0.00 96 1020.3
20260902121523 21 149 0.0 0.0 0.00 0.00 0.00 97 1020.3
20260902120021 20 149 0.0 0.0 0.00 0.00 0.00 97 1020.1
20260902114521 20 149 0.0 0.0 0.00 0.00 0.00 96 1020.0
20260902113023 20 149 0.0 0.0 0.00 0.00 0.00 96 1019.9
20260902111523 20 149 0.0 0.0 0.00 0.00 0.00 96 1019.8
20260902110025 20 149 0.0 0.0 0.00 0.00 0.00 96 1019.8
20260902104521 20 149 0.0 1.6 0.00 0.00 0.00 96 1019.7
20260902103013 20 161 0.0 0.0 0.00 0.00 0.00 96 1019.7
20260902101513 20 161 0.0 0.0 0.00 0.00 0.00 96 1019.7
20260902100012 20 155 0.0 0.0 0.00 0.00 0.00 96 1019.5
20260902094510 20 155 0.0 0.0 0.00 0.00 0.00 96 1019.4
20260902093009 20 155 0.0 0.0 0.00 0.00 0.00 96 1019.3
20260902091512 20 155 0.0 0.0 0.00 0.00 0.00 96 1019.3
20260902090026 21 155 0.0 0.0 0.00 0.00 0.00 96 1019.1
20260902084514 21 155 0.0 0.0 0.00 0.00 0.00 96 1019.2
20260902083015 21 155 0.0 0.0 0.00 0.00 0.00 96 1019.1
20260902081524 21 155 0.0 0.0 0.00 0.00 0.00 95 1019.0
20260902080013 21 155 0.0 0.0 0.00 0.00 0.00 95 1018.9
20260902074508 21 155 0.0 0.0 0.00 0.00 0.00 95 1018.9
20260902073009 21 155 0.0 0.0 0.00 0.00 0.00 95 1018.8
20260902071536 21 155 0.0 0.0 0.00 0.00 0.00 95 1019.1
20260902070015 21 155 0.0 0.0 0.00 0.00 0.00 95 1018.9
20260902064519 21 155 0.0 0.0 0.00 0.00 0.00 95 1018.9
20260902063026 21 155 0.0 0.0 0.00 0.00 0.00 95 1019.0
20260902061518 21 155 0.0 0.0 0.00 0.00 0.00 95 1019.0
20260902060021 21 155 1.6 3.2 0.00 0.00 0.00 95 1019.0
20260902053022 22 167 0.0 0.0 0.00 0.00 0.00 95 1019.1
20260902051529 22 167 0.0 0.0 0.00 0.00 0.00 95 1018.9
20260902050030 22 167 0.0 0.0 0.00 0.00 0.00 95 1019.0
20260902044526 22 167 0.0 0.0 0.00 0.00 0.00 95 1018.9
20260902043018 22 167 0.0 0.0 0.00 0.00 0.00 95 1018.9
20260902041514 22 167 0.0 0.0 0.00 0.00 0.00 95 1019.1
20260902040023 22 167 0.0 0.0 0.00 0.00 0.00 95 1018.9
20260902034524 22 167 0.0 0.0 0.00 0.00 0.00 94 1018.8
20260902033024 22 167 0.0 4.8 0.00 0.00 0.00 94 1018.9
20260902031526 22 167 0.0 0.0 0.00 0.00 0.00 94 1018.9